Weather History for Casper, WY

Change the Weather History Date:

Tuesday, July 30, 2013

  Actual Average Record
Temperature  
Mean Temperature 71 °F 72 °F  
Max Temperature 86 °F 89 °F 101 °F (2006)
Min Temperature 55 °F 54 °F 38 °F (1971)
Degree Days  
Heating Degree Days 0 0  
Month to date heating degree days 0 11  
Since 1 June heating degree days 72 147  
Since 1 July heating degree days 0 11  
Cooling Degree Days 6 7  
Month to date cooling degree days 227 183  
Year to date cooling degree days 320 240  
Since 1 June cooling degree days 310 236  
Growing Degree Days 22 (Base 50)    
Moisture  
Dew Point 48 °F    
Average Humidity 54    
Maximum Humidity 86    
Minimum Humidity 22    
Precipitation  
Precipitation 0.02 in 0.05 in 0.84 in (1985)
Month to date precipitation 1.66 1.37  
Year to date precipitation 8.50 8.19  
Snow  
Snow 0.00 in 0.00 in - ()
Month to date snowfall 0.0 0.0  
Since 1 June snowfall 0.0 0.1  
Since 1 July snowfall 0.0 0.0  
Snow Depth 0.00 in    
Sea Level Pressure  
Sea Level Pressure 30.06 in    
Wind  
Wind Speed 11 mph (SW)    
Max Wind Speed 32 mph    
Max Gust Speed 51 mph    
Visibility 10 miles    
Events Rain , Thunderstorm    
T = Trace of Precipitation, MM = Missing Value Source: NWS Daily Summary

Daily Weather History Graph

Daily Weather History Graph

Search for Another Location

Airport:

Trip Planner

Search our weather history database for the weather conditions in past years. The results will help you decide how hot, cold, wet, or windy it might be!

Date:

Astronomy

Jul. 30, 2013 Rise Set
Actual Time 5:55 AM MDT 8:28 PM MDT
Civil Twilight 5:22 AM MDT 9:00 PM MDT
Nautical Twilight 4:42 AM MDT 9:41 PM MDT
Astronomical Twilight 3:56 AM MDT 10:26 PM MDT
Moon 12:16 AM MDT (7/30) 2:51 PM MDT (7/30)
Length of Visible Light 15h 38m
Length of Day
14h 33m
Last Quarter, 40% of the Moon is Illuminated
Jul 30
Last Quarter
Aug 6
New
Aug 14
First Quarter
Aug 20
Full
Aug 28
Last Quarter

Hourly Weather History & Observations

Time (MDT) Temp. Dew Point Humidity Pressure Visibility Wind Dir Wind Speed Gust Speed Precip Events Conditions
12:53 AM 59.0 °F 53.1 °F 81% 30.02 in 10.0 mi ESE 9.2 mph - N/A   Partly Cloudy
1:53 AM 57.0 °F 53.1 °F 87% 30.02 in 10.0 mi SW 4.6 mph - N/A   Clear
2:53 AM 57.9 °F 53.1 °F 84% 30.00 in 10.0 mi SW 6.9 mph - N/A   Clear
3:53 AM 55.0 °F 52.0 °F 89% 30.00 in 10.0 mi West 6.9 mph - N/A   Clear
4:53 AM 55.9 °F 52.0 °F 87% 30.01 in 10.0 mi West 3.5 mph - N/A   Clear
5:53 AM 57.0 °F 50.0 °F 77% 30.01 in 10.0 mi SW 8.1 mph - N/A   Clear
6:53 AM 60.1 °F 50.0 °F 69% 30.04 in 10.0 mi SW 12.7 mph - N/A   Clear
7:53 AM 64.9 °F 51.1 °F 61% 30.04 in 10.0 mi SSW 15.0 mph 20.7 mph N/A   Clear
8:53 AM 68.0 °F 50.0 °F 52% 30.08 in 10.0 mi SW 18.4 mph 25.3 mph N/A   Clear
9:53 AM 72.0 °F 51.1 °F 48% 30.06 in 10.0 mi SW 20.7 mph 26.5 mph N/A   Clear
10:53 AM 77.0 °F 48.9 °F 37% 30.05 in 10.0 mi SW 18.4 mph 27.6 mph N/A   Clear
11:53 AM 82.0 °F 46.9 °F 29% 30.03 in 10.0 mi WSW 13.8 mph 21.9 mph N/A   Clear
12:53 PM 84.9 °F 41.0 °F 21% 30.00 in 10.0 mi West 15.0 mph 27.6 mph N/A   Clear
1:53 PM 82.9 °F 41.0 °F 23% 29.99 in 10.0 mi SSW 9.2 mph - N/A   Scattered Clouds
2:21 PM 73.4 °F 39.2 °F 29% 30.20 in 6.0 mi SW 29.9 mph 43.7 mph 0.00 in Rain Light Rain
2:30 PM 73.4 °F 42.8 °F 33% 30.19 in 10.0 mi South 15.0 mph 41.4 mph 0.00 in Rain , Thunderstorm Light Rain
2:45 PM 69.8 °F 50.0 °F 49% 30.19 in 10.0 mi SSW 17.3 mph 29.9 mph 0.02 in Rain Light Rain
2:53 PM 73.0 °F 45.0 °F 37% 30.02 in 10.0 mi SSW 13.8 mph 50.6 mph 0.02 in Rain Light Rain
3:53 PM 82.9 °F 37.9 °F 20% 30.01 in 10.0 mi West 11.5 mph - 0.00 in   Partly Cloudy
4:32 PM 75.2 °F 46.4 °F 36% 30.20 in 10.0 mi North 17.3 mph 24.2 mph N/A   Partly Cloudy
4:53 PM 78.1 °F 46.9 °F 33% 30.02 in 10.0 mi NNE 19.6 mph 26.5 mph N/A   Partly Cloudy
5:53 PM 78.1 °F 42.1 °F 28% 30.01 in 10.0 mi NE 9.2 mph - N/A   Clear
6:53 PM 79.0 °F 42.1 °F 27% 30.02 in 10.0 mi East 9.2 mph - N/A   Clear
7:53 PM 73.9 °F 45.0 °F 35% 30.04 in 10.0 mi NNE 6.9 mph - N/A   Clear
8:53 PM 69.1 °F 51.1 °F 53% 30.07 in 10.0 mi East 6.9 mph - N/A   Partly Cloudy
9:53 PM 66.0 °F 51.1 °F 59% 30.09 in 10.0 mi East 11.5 mph - N/A   Partly Cloudy
10:53 PM 62.1 °F 52.0 °F 70% 30.13 in 10.0 mi North 5.8 mph - N/A   Clear
11:53 PM 61.0 °F 51.1 °F 70% 30.14 in 10.0 mi NNE 9.2 mph - N/A   Clear